[[{"header":{"parameterUnit":"m.s-1","parameterCategory":2,"la1":30.2991,"la2":30.254,"lo1":-89.0895,"lo2":-89.0444,"dy":0.0017,"dx":0.0017,"nx":28,"ny":28,"refTime":"2025-02-06T09:00:00:Z","depth":"0","parameterNumber":2,"parameterNumberName":"U-component_of_CURRENTS"},"data":[0,0,0,0,0,0,0,0,0,0,0,0,0,0,0,0,0,0,0,0,0,0,0,0,0,0,0,0,0,0,0,0,0,0,0,0,0,0,0,0,0,0,0,0,0,0,0,0,0,0,0,0,0,0,0,0,0,0,-0.3033,-0.3034,0,-0.3111,-0.3112,-0.3112,-0.3054,-0.3052,-0.305,-0.3048,-0.3028,-0.3029,-0.303,0,0,0,0,0,0,0,0,0,0,0,0,0,-0.2871,-0.2873,-0.3033,-0.3034,-0.3036,-0.3111,-0.3112,-0.3112,-0.3054,-0.3052,-0.3049,-0.3047,-0.3027,-0.3029,-0.303,0,0,0,0,0,0,0,0,0,0,0,0,0,-0.2939,-0.2874,-0.3032,-0.3019,-0.3019,-0.3111,-0.3112,-0.3113,-0.3055,-0.3051,-0.3048,-0.3045,-0.3026,-0.3029,-0.3031,-0.3106,0,0,-0.3037,-0.3038,0,0,0,0,0,0,0,0,-0.2935,-0.2944,-0.302,-0.3021,-0.3021,-0.3074,-0.3048,-0.3107,-0.3055,-0.3036,-0.3048,-0.3044,-0.304,-0.3041,-0.3056,-0.3105,-0.3104,-0.3037,-0.3039,-0.3039,-0.304,0,0,0,0,0,0,0,-0.2931,-0.2941,-0.3058,-0.3022,-0.3022,-0.3023,-0.3029,-0.3059,-0.3048,-0.3037,-0.3034,-0.3053,-0.3038,-0.3054,-0.3055,-0.3104,-0.3037,-0.3039,-0.304,-0.3041,-0.3125,-0.3126,0,0,0,0,0,0,-0.2934,-0.2937,-0.3056,-0.3061,-0.2975,-0.3029,-0.3035,-0.3056,-0.305,-0.3049,-0.3055,-0.305,-0.3052,-0.3053,-0.3054,-0.3051,-0.3039,-0.3041,-0.3043,-0.3124,-0.3125,-0.3127,0,0,0,0,0,0,-0.293,-0.2944,-0.3053,-0.3004,-0.3019,-0.3035,-0.3059,-0.3059,-0.3065,-0.3066,-0.306,-0.3061,-0.305,-0.3051,-0.3061,-0.3052,-0.3042,-0.3044,-0.3123,-0.3125,-0.3126,-0.3103,0,0,0,0,0,0,-0.2925,-0.2942,-0.2947,-0.3005,-0.3022,-0.3098,-0.3063,-0.3063,-0.3085,-0.3078,-0.307,-0.3065,-0.3048,-0.3058,-0.3063,-0.3055,-0.3046,-0.3122,-0.3124,-0.3126,-0.3102,-0.3103,-0.3104,0,0,0,0,0,-0.2919,-0.2946,-0.2946,-0.296,-0.3032,-0.31,-0.3108,-0.3105,-0.3088,-0.3097,-0.3082,-0.3065,-0.3073,-0.3062,-0.3067,-0.3059,-0.3121,-0.3123,-0.3125,-0.3102,-0.3103,-0.3104,0,0,0,0,0,0,-0.2872,-0.2945,-0.2946,-0.299,-0.3036,-0.3091,-0.3106,-0.3116,-0.3118,-0.3101,-0.3088,-0.3084,-0.3085,-0.3093,-0.3081,-0.3091,-0.3092,-0.3095,-0.3072,-0.3073,-0.3074,-0.3017,-0.3048,0,0,0,0,0,-0.287,-0.2904,-0.2973,-0.3002,-0.3031,-0.3071,-0.3095,-0.3103,-0.3124,-0.3121,-0.3123,-0.3117,-0.3108,-0.3104,-0.311,-0.3132,-0.3088,-0.313,-0.3131,-0.3131,-0.3091,-0.3005,-0.2992,-0.3134,-0.3134,-0.3134,0,0,-0.2858,-0.2904,-0.2919,-0.2994,-0.3027,-0.3058,-0.3075,-0.3121,-0.3123,-0.3122,-0.3123,-0.3128,-0.3117,-0.3118,-0.312,-0.3117,-0.3082,-0.3134,-0.3134,-0.3093,-0.3005,-0.299,-0.2977,-0.3135,-0.3135,-0.3135,0,0,-0.2834,-0.2897,-0.2899,-0.2951,-0.3013,-0.3055,-0.3071,-0.3135,-0.3135,-0.3168,-0.3141,-0.3125,-0.3166,-0.3118,-0.3105,-0.3123,-0.3092,-0.3155,-0.3105,-0.3023,-0.3008,-0.2995,-0.2968,-0.2952,-0.315,-0.315,-0.315,0,-0.2802,-0.282,-0.2911,-0.2931,-0.2951,-0.305,-0.3044,-0.3095,-0.3146,-0.3122,-0.316,-0.3137,-0.3144,-0.3072,-0.3082,-0.3115,-0.3089,-0.3097,-0.3017,-0.3003,-0.2989,-0.2964,-0.2946,-0.315,-0.315,-0.315,-0.315,0,-0.2763,-0.2789,-0.281,-0.2856,-0.2901,-0.2933,-0.3014,-0.3045,-0.3082,-0.3101,-0.3073,-0.3091,-0.3051,-0.3077,-0.309,-0.3003,-0.3027,-0.3027,-0.2999,-0.2972,-0.295,-0.2932,-0.3148,-0.3149,-0.3149,-0.3149,0,0,-0.2645,-0.2749,-0.2748,-0.276,-0.2858,-0.2898,-0.2919,-0.2938,-0.293,-0.2987,-0.293,-0.2942,-0.2951,-0.2936,-0.2951,-0.2901,-0.2824,-0.2934,-0.293,-0.288,-0.2679,-0.2622,-0.2598,-0.2809,-0.2805,-0.2802,-0.2717,0,-0.256,-0.2576,-0.2638,-0.2653,-0.2677,-0.2764,-0.2779,-0.2818,-0.2866,-0.2867,-0.286,-0.285,-0.2903,-0.2894,-0.2843,-0.2838,-0.2769,-0.2849,-0.2733,-0.273,-0.2659,-0.257,-0.2486,-0.2394,-0.2699,-0.2696,-0.2694,0,-0.247,-0.25,-0.2487,-0.2558,-0.2568,-0.2589,-0.2615,-0.2646,-0.2675,-0.27,-0.2675,-0.2713,-0.2662,-0.272,-0.2631,-0.2687,-0.2661,-0.2656,-0.2652,-0.2576,-0.2636,-0.2464,-0.235,-0.2335,-0.2666,-0.2668,-0.267,0,-0.2349,-0.2393,-0.2375,-0.2405,-0.25,-0.2478,-0.2518,-0.2565,-0.2588,-0.2591,-0.2607,-0.2558,-0.2563,-0.2499,-0.2535,-0.257,-0.2443,-0.2482,-0.2388,-0.2388,-0.2274,-0.2269,-0.2092,-0.2344,-0.2344,-0.2344,-0.2344,0,-0.2254,-0.2248,-0.2325,-0.2334,-0.2314,-0.2396,-0.2382,-0.2419,-0.2456,-0.247,-0.2515,-0.2513,-0.2509,-0.2478,-0.2469,-0.238,-0.2375,-0.2331,-0.2325,-0.2274,-0.227,-0.222,-0.2261,-0.2341,-0.2342,-0.2342,-0.2343,0,-0.2153,-0.2198,-0.2205,-0.2261,-0.2274,-0.2269,-0.2339,-0.2344,-0.2395,-0.2408,-0.2409,-0.2463,-0.242,-0.2411,-0.2331,-0.2301,-0.2172,-0.2176,-0.2151,-0.2139,-0.2021,-0.2067,-0.1875,-0.1823,-0.2032,-0.2029,-0.2027,0,-0.2107,-0.2097,-0.215,-0.2154,-0.2179,-0.2197,-0.2215,-0.2292,-0.2318,-0.2383,-0.2377,-0.2364,-0.2336,-0.2221,-0.2142,-0.204,-0.2063,-0.191,-0.192,-0.1945,-0.1992,-0.2039,-0.2014,-0.18,-0.1796,-0.1793,-0.179,0,-0.2015,-0.2032,-0.2045,-0.2059,-0.2074,-0.21,-0.2135,-0.2152,-0.224,-0.2258,-0.2264,-0.2238,-0.2158,-0.2019,-0.1908,-0.1847,-0.1861,-0.1841,-0.1838,-0.1738,-0.18,-0.1773,-0.1991,-0.1763,-0.1765,-0.1767,-0.1769,-0.177,-0.1936,-0.1925,-0.1941,-0.1942,-0.1965,-0.1972,-0.196,-0.2015,-0.2027,-0.2037,-0.2093,-0.2024,-0.194,-0.1761,-0.1694,-0.156,-0.1637,-0.1519,-0.1563,-0.1602,-0.1545,-0.172,-0.1502,-0.1503,-0.1504,-0.1505,-0.1506,0,-0.1826,-0.1825,-0.1825,-0.1824,-0.1802,-0.1855,-0.1881,-0.1854,-0.1827,-0.1858,-0.1832,-0.1737,-0.1593,-0.1533,-0.14,-0.1318,-0.1303,-0.1296,-0.1341,-0.132,-0.1424,-0.1407,-0.119,-0.119,-0.119,-0.119,-0.119,-0.119,-0.1768,-0.1724,-0.1725,-0.1648,-0.165,-0.1597,-0.1586,-0.1556,-0.1556,-0.1476,-0.1448,-0.1444,-0.1402,-0.1437,-0.1302,-0.1228,-0.1214,-0.117,-0.1205,-0.1306,-0.1331,-0.1355,-0.1344,-0.1117,-0.1117,-0.1047,-0.1046,-0.1046]},{"header":{"parameterUnit":"m.s-1","parameterCategory":2,"la1":30.2991,"la2":30.254,"lo1":-89.0895,"lo2":-89.0444,"dy":0.0017,"dx":0.0017,"nx":28,"ny":28,"refTime":"2025-02-06T09:00:00:Z","depth":"0","parameterNumber":3,"parameterNumberName":"V-component_of_CURRENTS"},"data":[0,0,0,0,0,0,0,0,0,0,0,0,0,0,0,0,0,0,0,0,0,0,0,0,0,0,0,0,0,0,0,0,0,0,0,0,0,0,0,0,0,0,0,0,0,0,0,0,0,0,0,0,0,0,0,0,0,0,0.0165,0.0166,0,0.0278,0.0279,0.028,0.0369,0.0371,0.0372,0.0373,0.0634,0.064,0.0646,0,0,0,0,0,0,0,0,0,0,0,0,0,0.005,0.0051,0.0164,0.0166,0.0168,0.0277,0.0279,0.028,0.0369,0.0371,0.0372,0.0373,0.0632,0.0639,0.0646,0,0,0,0,0,0,0,0,0,0,0,0,0,0.0122,0.0051,0.0164,0.0228,0.0235,0.0277,0.0279,0.028,0.0369,0.0371,0.0372,0.0374,0.063,0.0638,0.0647,0.0666,0,0,0.0674,0.0678,0,0,0,0,0,0,0,0,0.0117,0.0125,0.0217,0.0224,0.0232,0.0314,0.0334,0.0418,0.0368,0.0315,0.0373,0.0375,0.0542,0.0558,0.0568,0.0678,0.0689,0.0675,0.068,0.0684,0.0686,0,0,0,0,0,0,0,0.0112,0.0121,0.0206,0.0219,0.0228,0.0259,0.0271,0.035,0.0417,0.032,0.0327,0.0344,0.0546,0.0559,0.0576,0.0693,0.0674,0.0682,0.0688,0.0691,0.081,0.0808,0,0,0,0,0,0,0.0102,0.0116,0.0203,0.021,0.0181,0.026,0.0273,0.0283,0.0413,0.0435,0.0342,0.0348,0.0544,0.0565,0.0585,0.0616,0.0684,0.0692,0.0697,0.0812,0.081,0.0807,0,0,0,0,0,0,0.0098,0.0108,0.0198,0.0169,0.0183,0.026,0.0271,0.0285,0.03,0.043,0.0454,0.0345,0.0546,0.0573,0.0624,0.0627,0.0696,0.0704,0.0815,0.0811,0.0808,0.0677,0,0,0,0,0,0,0.0094,0.0106,0.0094,0.0167,0.0184,0.0209,0.027,0.0286,0.031,0.0318,0.044,0.0466,0.0549,0.061,0.0633,0.064,0.0711,0.0817,0.0813,0.0809,0.0684,0.067,0.0658,0,0,0,0,0,0.009,0.0065,0.0093,0.0103,0.0171,0.0208,0.0218,0.0278,0.0308,0.03,0.0368,0.0462,0.0602,0.0614,0.0642,0.0653,0.0819,0.0814,0.081,0.069,0.0673,0.0658,0,0,0,0,0,0,0.0003,0.0075,0.0106,0.0104,0.0148,0.0225,0.0222,0.0264,0.0309,0.0317,0.0436,0.0464,0.051,0.0583,0.0594,0.0668,0.0727,0.0727,0.0626,0.0611,0.0598,0.0599,0.0718,0,0,0,0,0,-0.002,-0.0016,0.0058,0.0053,0.0072,0.0143,0.0162,0.0203,0.026,0.0281,0.0369,0.0449,0.0509,0.0559,0.0623,0.0668,0.0718,0.0689,0.0676,0.0664,0.0678,0.0693,0.0682,0.0792,0.0792,0.0792,0,0,-0.0054,-0.0016,-0.0013,0.0035,0.0074,0.009,0.0157,0.0177,0.0197,0.0305,0.0347,0.0407,0.0504,0.0545,0.0574,0.0613,0.0657,0.0658,0.0648,0.0669,0.0687,0.0676,0.0667,0.0788,0.0789,0.079,0,0,-0.0122,-0.0087,-0.0105,-0.0071,-0.0019,0.0032,0.0034,0.0106,0.0143,0.0183,0.0256,0.0304,0.0413,0.0476,0.0523,0.0475,0.0576,0.0497,0.0455,0.0466,0.0458,0.0451,0.0496,0.0495,0.0503,0.0503,0.0503,0,-0.017,-0.0168,-0.0108,-0.0112,-0.0089,0.0002,-0.0007,0.0041,0.0121,0.0143,0.0181,0.0297,0.0384,0.0432,0.042,0.0452,0.0478,0.051,0.045,0.0444,0.044,0.0488,0.0488,0.0496,0.0497,0.0498,0.0498,0,-0.0238,-0.0235,-0.0245,-0.0208,-0.0185,-0.0178,-0.0095,-0.0068,-0.0007,0.005,0.01,0.0193,0.0267,0.0296,0.0359,0.0369,0.0403,0.0419,0.0492,0.0421,0.0476,0.0479,0.0486,0.0489,0.0491,0.0492,0,0,-0.0335,-0.03,-0.0301,-0.0295,-0.0233,-0.0215,-0.019,-0.0137,-0.0117,-0.0039,-0.0014,0.0085,0.0136,0.0191,0.0264,0.0295,0.0293,0.0344,0.0348,0.0393,0.0334,0.0386,0.0395,0.0285,0.0285,0.0285,0.0384,0,-0.0402,-0.043,-0.0392,-0.0404,-0.0402,-0.0324,-0.0305,-0.0247,-0.0179,-0.013,-0.0033,0.0023,0.0098,0.013,0.0165,0.0267,0.0294,0.0267,0.0395,0.04,0.0457,0.0397,0.0423,0.0515,0.0387,0.0388,0.0388,0,-0.0468,-0.0475,-0.0508,-0.0481,-0.0475,-0.047,-0.042,-0.039,-0.0303,-0.0254,-0.0191,-0.0103,-0.0017,0.0038,0.0169,0.0143,0.0227,0.0302,0.0307,0.041,0.0456,0.0566,0.0526,0.0649,0.0393,0.0393,0.0392,0,-0.0537,-0.0545,-0.0571,-0.0562,-0.0526,-0.053,-0.0504,-0.0435,-0.0406,-0.0327,-0.0297,-0.0198,-0.0122,-0.0032,0.0156,0.0148,0.0299,0.0303,0.0427,0.0434,0.0514,0.0528,0.0617,0.0365,0.0365,0.0365,0.0365,0,-0.0599,-0.0616,-0.0606,-0.0615,-0.0645,-0.0597,-0.0605,-0.0564,-0.0505,-0.047,-0.0365,-0.0304,-0.0139,-0.0014,0.0118,0.03,0.0267,0.0423,0.0455,0.0469,0.0476,0.0638,0.0688,0.0369,0.0368,0.0367,0.0366,0,-0.0653,-0.0647,-0.0675,-0.0672,-0.0673,-0.069,-0.0667,-0.0664,-0.0603,-0.0556,-0.0531,-0.0375,-0.0204,-0.0027,0.0163,0.0273,0.0511,0.0493,0.0522,0.0555,0.0763,0.0804,0.0954,0.1032,0.0625,0.0627,0.0629,0,-0.0678,-0.07,-0.0724,-0.0749,-0.0749,-0.0763,-0.0771,-0.0719,-0.0703,-0.0583,-0.0561,-0.0384,-0.0231,0.0073,0.0289,0.0514,0.061,0.0662,0.0646,0.0782,0.0852,0.0879,0.0936,0.0706,0.0708,0.071,0.0711,0,-0.0726,-0.0736,-0.0761,-0.0818,-0.0842,-0.0861,-0.086,-0.086,-0.078,-0.071,-0.0573,-0.0439,-0.0129,0.0157,0.0448,0.0582,0.0753,0.0701,0.0824,0.091,0.0965,0.1053,0.0657,0.0725,0.0724,0.0723,0.0722,0.0722,-0.0756,-0.0794,-0.0833,-0.0882,-0.0915,-0.094,-0.0934,-0.0905,-0.085,-0.0695,-0.0581,-0.0317,0.0044,0.0467,0.0617,0.0927,0.0895,0.1015,0.1053,0.1069,0.1142,0.0795,0.0904,0.0904,0.0903,0.0903,0.0903,0,-0.079,-0.0832,-0.0891,-0.0945,-0.0985,-0.0984,-0.0973,-0.0909,-0.0817,-0.0643,-0.0464,-0.0012,0.0354,0.069,0.1092,0.1264,0.1298,0.1351,0.1392,0.1432,0.1114,0.1114,0.1296,0.1296,0.1295,0.1295,0.1295,0.1295,-0.0809,-0.0872,-0.0907,-0.0983,-0.1018,-0.1004,-0.0981,-0.084,-0.0682,-0.0349,-0.0058,0.0161,0.0592,0.1169,0.1545,0.1584,0.1731,0.1721,0.1805,0.1578,0.1549,0.1521,0.1534,0.18,0.1801,0.2112,0.2115,0.2118]}],[{"header":{"parameterUnit":"m.s-1","parameterCategory":2,"la1":30.2991,"la2":30.254,"lo1":-89.0895,"lo2":-89.0444,"dy":0.0017,"dx":0.0017,"nx":28,"ny":28,"refTime":"2025-02-06T09:00:00:Z","depth":"2","parameterNumber":2,"parameterNumberName":"U-component_of_CURRENTS"},"data":[0,0,0,0,0,0,0,0,0,0,0,0,0,0,0,0,0,0,0,0,0,0,0,0,0,0,0,0,0,0,0,0,0,0,0,0,0,0,0,0,0,0,0,0,0,0,0,0,0,0,0,0,0,0,0,0,0,0,-0.2126,-0.2126,0,-0.2199,-0.22,-0.2201,-0.2187,-0.2186,-0.2185,-0.2183,-0.2203,-0.2205,-0.2206,0,0,0,0,0,0,0,0,0,0,0,0,0,-0.202,-0.2022,-0.2125,-0.2126,-0.2127,-0.2199,-0.22,-0.2201,-0.2187,-0.2186,-0.2184,-0.2183,-0.2202,-0.2204,-0.2206,0,0,0,0,0,0,0,0,0,0,0,0,0,-0.2076,-0.2022,-0.2125,-0.213,-0.2131,-0.2199,-0.22,-0.2201,-0.2187,-0.2186,-0.2184,-0.2182,-0.2202,-0.2204,-0.2207,-0.2258,0,0,-0.2214,-0.2215,0,0,0,0,0,0,0,0,-0.2073,-0.208,-0.2128,-0.213,-0.2131,-0.2183,-0.217,-0.2218,-0.2188,-0.2165,-0.2183,-0.2181,-0.2193,-0.2196,-0.2213,-0.2259,-0.226,-0.2214,-0.2216,-0.2217,-0.2218,0,0,0,0,0,0,0,-0.2069,-0.2077,-0.2153,-0.213,-0.2132,-0.2145,-0.215,-0.2179,-0.2187,-0.2167,-0.2166,-0.2177,-0.2193,-0.2211,-0.2214,-0.226,-0.2214,-0.2217,-0.2218,-0.2219,-0.2393,-0.2396,0,0,0,0,0,0,-0.2062,-0.2073,-0.2151,-0.2156,-0.2098,-0.2148,-0.2154,-0.2167,-0.2187,-0.219,-0.2178,-0.2176,-0.2208,-0.2211,-0.2214,-0.227,-0.2217,-0.2219,-0.2221,-0.239,-0.2393,-0.2397,0,0,0,0,0,0,-0.2059,-0.2068,-0.2148,-0.2116,-0.2128,-0.2152,-0.2167,-0.217,-0.2193,-0.2197,-0.2197,-0.2198,-0.2207,-0.2211,-0.2258,-0.227,-0.222,-0.2223,-0.2386,-0.2391,-0.2395,-0.2385,0,0,0,0,0,0,-0.2056,-0.2067,-0.2085,-0.2116,-0.2129,-0.2191,-0.2169,-0.2173,-0.2202,-0.22,-0.2215,-0.2214,-0.2205,-0.2255,-0.2261,-0.2273,-0.2225,-0.2382,-0.2388,-0.2394,-0.2382,-0.2389,-0.2396,0,0,0,0,0,-0.2052,-0.2083,-0.2086,-0.2096,-0.215,-0.2192,-0.22,-0.221,-0.2205,-0.2222,-0.2242,-0.2214,-0.2296,-0.226,-0.2266,-0.2278,-0.2379,-0.2386,-0.2393,-0.2379,-0.2388,-0.2395,0,0,0,0,0,0,-0.2049,-0.2085,-0.2089,-0.213,-0.2159,-0.219,-0.2211,-0.2224,-0.2256,-0.2255,-0.2252,-0.2255,-0.2298,-0.2313,-0.2273,-0.2355,-0.2335,-0.2344,-0.2322,-0.2331,-0.2338,-0.2257,-0.2227,0,0,0,0,0,-0.2058,-0.2082,-0.212,-0.2149,-0.2165,-0.2193,-0.2215,-0.2227,-0.2255,-0.2267,-0.2277,-0.2305,-0.2337,-0.2351,-0.2379,-0.2428,-0.2389,-0.2448,-0.2455,-0.246,-0.2406,-0.2375,-0.2371,-0.242,-0.242,-0.242,0,0,-0.2063,-0.2086,-0.2101,-0.2149,-0.217,-0.2197,-0.2201,-0.224,-0.2257,-0.2267,-0.2296,-0.2326,-0.2359,-0.2403,-0.2425,-0.2411,-0.244,-0.2469,-0.2472,-0.2414,-0.2381,-0.2375,-0.237,-0.2425,-0.2424,-0.2423,0,0,-0.2076,-0.2107,-0.2127,-0.2155,-0.2195,-0.2215,-0.2229,-0.227,-0.2281,-0.2337,-0.2339,-0.236,-0.2439,-0.2427,-0.2443,-0.2511,-0.2476,-0.2562,-0.2522,-0.2495,-0.2487,-0.248,-0.2459,-0.2449,-0.2565,-0.2565,-0.2565,0,-0.2077,-0.2106,-0.2141,-0.2166,-0.2181,-0.222,-0.224,-0.2271,-0.2321,-0.2324,-0.2347,-0.2411,-0.2429,-0.2441,-0.2464,-0.2511,-0.2506,-0.2478,-0.2493,-0.2486,-0.2478,-0.2457,-0.2447,-0.2565,-0.2565,-0.2565,-0.2565,0,-0.2098,-0.2124,-0.2138,-0.2171,-0.2201,-0.2228,-0.2267,-0.2295,-0.2325,-0.2344,-0.2376,-0.2406,-0.2426,-0.2463,-0.248,-0.246,-0.2478,-0.2499,-0.2447,-0.2471,-0.2451,-0.244,-0.2566,-0.2566,-0.2565,-0.2565,0,0,-0.2074,-0.2138,-0.2138,-0.2148,-0.2203,-0.2224,-0.2257,-0.2284,-0.2292,-0.2341,-0.2337,-0.2382,-0.2384,-0.2399,-0.2427,-0.2399,-0.2359,-0.2429,-0.2428,-0.2361,-0.231,-0.2249,-0.2232,-0.2393,-0.2391,-0.2389,-0.2326,0,-0.2066,-0.2098,-0.2137,-0.216,-0.2175,-0.2217,-0.224,-0.2273,-0.2308,-0.2323,-0.2331,-0.2355,-0.2371,-0.2388,-0.2358,-0.237,-0.2327,-0.2373,-0.2335,-0.2332,-0.2236,-0.2215,-0.2077,-0.2002,-0.2316,-0.2314,-0.2312,0,-0.2053,-0.2078,-0.2098,-0.2138,-0.2148,-0.217,-0.2194,-0.2227,-0.2256,-0.2283,-0.2286,-0.2313,-0.2283,-0.2303,-0.2254,-0.2297,-0.2277,-0.2272,-0.2271,-0.2187,-0.2248,-0.2029,-0.1971,-0.2294,-0.2295,-0.2297,-0.2298,0,-0.1988,-0.2039,-0.2046,-0.2063,-0.2125,-0.2131,-0.216,-0.2201,-0.2224,-0.2244,-0.2265,-0.2249,-0.2253,-0.2216,-0.2213,-0.224,-0.2155,-0.2199,-0.2109,-0.2107,-0.1957,-0.1944,-0.211,-0.211,-0.211,-0.211,-0.211,0,-0.1947,-0.1951,-0.2016,-0.2021,-0.2031,-0.2087,-0.21,-0.2133,-0.2174,-0.2189,-0.2228,-0.223,-0.2232,-0.2209,-0.2187,-0.2107,-0.2131,-0.2054,-0.2065,-0.1961,-0.195,-0.2176,-0.2184,-0.2108,-0.2108,-0.2109,-0.2109,0,-0.1869,-0.1913,-0.1927,-0.1985,-0.2001,-0.2005,-0.207,-0.2083,-0.2136,-0.2154,-0.216,-0.2206,-0.2173,-0.2161,-0.211,-0.2072,-0.2008,-0.1969,-0.1848,-0.1843,-0.1986,-0.1996,-0.1848,-0.1845,-0.1842,-0.184,-0.1838,0,-0.183,-0.1829,-0.1886,-0.1895,-0.1919,-0.1947,-0.1967,-0.2042,-0.2065,-0.2132,-0.2129,-0.2128,-0.2093,-0.2005,-0.193,-0.184,-0.192,-0.1672,-0.1665,-0.1922,-0.1948,-0.1963,-0.1976,-0.1491,-0.1486,-0.1483,-0.148,0,-0.1751,-0.1773,-0.1789,-0.1812,-0.1832,-0.1858,-0.1896,-0.1911,-0.1994,-0.2012,-0.2017,-0.1993,-0.1926,-0.1771,-0.1677,-0.1615,-0.1677,-0.1592,-0.1862,-0.1585,-0.1581,-0.161,-0.1634,-0.1446,-0.1449,-0.1452,-0.1454,-0.1455,-0.1682,-0.1677,-0.17,-0.1708,-0.1735,-0.1741,-0.1719,-0.1772,-0.178,-0.1774,-0.1839,-0.1746,-0.1723,-0.1488,-0.1397,-0.1327,-0.1444,-0.1385,-0.1398,-0.1415,-0.139,-0.1382,-0.1206,-0.1208,-0.121,-0.1211,-0.1212,0,-0.1585,-0.1591,-0.1596,-0.1602,-0.1581,-0.1633,-0.1644,-0.1593,-0.1551,-0.1572,-0.1539,-0.1351,-0.1244,-0.1222,-0.1057,-0.1021,-0.1025,-0.0983,-0.0997,-0.103,-0.1059,-0.1019,-0.0735,-0.0733,-0.0732,-0.0731,0,0,-0.1535,-0.1501,-0.1503,-0.1434,-0.1436,-0.1354,-0.1326,-0.1267,-0.1238,-0.1154,-0.1106,-0.1176,-0.1183,-0.0963,-0.0908,-0.0793,-0.0904,-0.075,-0.1133,-0.1182,-0.121,-0.1289,-0.1263,0,0,0,0,0]},{"header":{"parameterUnit":"m.s-1","parameterCategory":2,"la1":30.2991,"la2":30.254,"lo1":-89.0895,"lo2":-89.0444,"dy":0.0017,"dx":0.0017,"nx":28,"ny":28,"refTime":"2025-02-06T09:00:00:Z","depth":"2","parameterNumber":3,"parameterNumberName":"V-component_of_CURRENTS"},"data":[0,0,0,0,0,0,0,0,0,0,0,0,0,0,0,0,0,0,0,0,0,0,0,0,0,0,0,0,0,0,0,0,0,0,0,0,0,0,0,0,0,0,0,0,0,0,0,0,0,0,0,0,0,0,0,0,0,0,-0.035,-0.035,0,-0.0317,-0.0316,-0.0316,-0.0269,-0.0268,-0.0267,-0.0266,-0.0171,-0.0169,-0.0168,0,0,0,0,0,0,0,0,0,0,0,0,0,-0.0376,-0.0376,-0.035,-0.035,-0.035,-0.0317,-0.0316,-0.0316,-0.0269,-0.0268,-0.0267,-0.0266,-0.0172,-0.017,-0.0167,0,0,0,0,0,0,0,0,0,0,0,0,0,-0.0356,-0.0376,-0.035,-0.0323,-0.032,-0.0317,-0.0316,-0.0315,-0.0269,-0.0268,-0.0267,-0.0266,-0.0173,-0.017,-0.0167,-0.0173,0,0,-0.0159,-0.0158,0,0,0,0,0,0,0,0,-0.0357,-0.0355,-0.0327,-0.0324,-0.0321,-0.0296,-0.029,-0.0265,-0.0269,-0.0288,-0.0266,-0.0265,-0.0208,-0.0203,-0.0199,-0.0169,-0.0164,-0.0159,-0.0157,-0.0156,-0.0155,0,0,0,0,0,0,0,-0.0358,-0.0356,-0.0337,-0.0327,-0.0323,-0.0312,-0.0308,-0.0286,-0.0253,-0.0286,-0.0283,-0.028,-0.0206,-0.0202,-0.0196,-0.0163,-0.0159,-0.0156,-0.0154,-0.0153,-0.0063,-0.0062,0,0,0,0,0,0,-0.0365,-0.0357,-0.0338,-0.0336,-0.0337,-0.0313,-0.0308,-0.0305,-0.0255,-0.0247,-0.0281,-0.0278,-0.0207,-0.02,-0.0193,-0.0154,-0.0156,-0.0153,-0.0152,-0.0063,-0.0063,-0.0062,0,0,0,0,0,0,-0.0365,-0.0363,-0.0339,-0.0346,-0.0342,-0.0314,-0.0311,-0.0305,-0.0293,-0.0252,-0.0242,-0.0273,-0.0206,-0.0197,-0.0158,-0.0151,-0.0152,-0.0149,-0.0064,-0.0063,-0.0062,-0.0104,0,0,0,0,0,0,-0.0366,-0.0364,-0.0365,-0.0346,-0.0342,-0.0338,-0.0311,-0.0305,-0.0293,-0.0289,-0.0242,-0.0233,-0.0204,-0.0162,-0.0155,-0.0148,-0.0147,-0.0065,-0.0064,-0.0062,-0.0104,-0.0104,-0.0105,0,0,0,0,0,-0.0367,-0.0376,-0.0365,-0.0362,-0.0344,-0.0338,-0.0335,-0.0311,-0.0294,-0.0294,-0.0252,-0.0234,-0.0147,-0.0159,-0.0151,-0.0143,-0.0066,-0.0064,-0.0063,-0.0103,-0.0104,-0.0105,0,0,0,0,0,0,-0.039,-0.0372,-0.0359,-0.0362,-0.035,-0.0331,-0.0331,-0.0313,-0.0283,-0.0274,-0.023,-0.0218,-0.0182,-0.0155,-0.0169,-0.011,-0.0102,-0.0098,-0.0135,-0.0136,-0.0137,-0.0166,-0.0145,0,0,0,0,0,-0.0397,-0.0398,-0.0377,-0.0382,-0.0376,-0.0353,-0.0348,-0.0332,-0.0304,-0.029,-0.0258,-0.0214,-0.0171,-0.0147,-0.0115,-0.0088,-0.0059,-0.0073,-0.0074,-0.0075,-0.0092,-0.0033,-0.003,-0.0056,-0.0056,-0.0056,0,0,-0.041,-0.0399,-0.0401,-0.0387,-0.0376,-0.0375,-0.0347,-0.0342,-0.0336,-0.0284,-0.0265,-0.0223,-0.0165,-0.0131,-0.0112,-0.0105,-0.005,-0.0073,-0.0074,-0.0091,-0.0031,-0.0029,-0.0027,-0.0055,-0.0055,-0.0055,0,0,-0.0439,-0.0425,-0.0433,-0.0425,-0.041,-0.0395,-0.0394,-0.0373,-0.0354,-0.0333,-0.0284,-0.024,-0.0189,-0.0144,-0.0113,-0.0099,-0.0061,-0.008,-0.0105,-0.0047,-0.0045,-0.0043,-0.0,0.0006,-0.0075,-0.0075,-0.0076,0,-0.0456,-0.0459,-0.0437,-0.0441,-0.0437,-0.0405,-0.0411,-0.0394,-0.0363,-0.0342,-0.0331,-0.0239,-0.0198,-0.0135,-0.013,-0.0103,-0.0067,-0.0109,-0.005,-0.0048,-0.0045,-0.0001,0.0006,-0.0077,-0.0077,-0.0077,-0.0077,0,-0.0487,-0.0488,-0.0494,-0.0485,-0.0478,-0.0482,-0.0452,-0.044,-0.0414,-0.0386,-0.0332,-0.0274,-0.0215,-0.0189,-0.0159,-0.0108,-0.0088,-0.0064,-0.0055,-0.0045,0.0001,0.0009,-0.008,-0.0079,-0.0079,-0.0078,0,0,-0.0528,-0.0518,-0.052,-0.0521,-0.05,-0.05,-0.0485,-0.0457,-0.0439,-0.0401,-0.0368,-0.0299,-0.0262,-0.0225,-0.017,-0.0127,-0.0076,-0.0094,-0.009,-0.0065,0.0046,0.0068,0.0079,-0.0036,-0.0035,-0.0034,0.0071,0,-0.0558,-0.0578,-0.0558,-0.0574,-0.0581,-0.0543,-0.0534,-0.0501,-0.0463,-0.0426,-0.0352,-0.0304,-0.0273,-0.0239,-0.019,-0.0104,-0.0056,-0.0107,0.0044,0.0047,0.0055,0.0089,0.0069,0.0161,0.0079,0.0081,0.0082,0,-0.0591,-0.06,-0.0622,-0.0613,-0.0611,-0.0613,-0.0582,-0.0568,-0.05,-0.0466,-0.0402,-0.0341,-0.0265,-0.0244,-0.0105,-0.0136,-0.0057,0.0004,0.0011,0.0046,0.0085,0.014,0.018,0.0096,0.0095,0.0094,0.0093,0,-0.0635,-0.0641,-0.066,-0.066,-0.0647,-0.0643,-0.0631,-0.058,-0.0563,-0.0487,-0.0461,-0.0358,-0.0303,-0.0198,-0.0075,-0.0082,0.0074,0.009,0.0185,0.0187,0.0204,0.0206,0.0186,0.0186,0.0185,0.0185,0.0185,0,-0.0674,-0.0688,-0.0684,-0.0698,-0.0718,-0.0687,-0.0688,-0.0657,-0.0606,-0.0581,-0.0487,-0.0439,-0.029,-0.0179,-0.0074,0.008,0.0085,0.0179,0.0219,0.0191,0.019,0.0158,0.0153,0.0189,0.0188,0.0187,0.0187,0,-0.0719,-0.0715,-0.074,-0.0739,-0.0741,-0.0756,-0.0742,-0.0738,-0.0682,-0.0644,-0.0621,-0.0488,-0.0339,-0.0188,-0.0003,0.0086,0.0227,0.0283,0.023,0.0261,0.0299,0.0291,0.0397,0.0398,0.04,0.0401,0.0402,0,-0.0741,-0.076,-0.0783,-0.0805,-0.0808,-0.0822,-0.0831,-0.0786,-0.0773,-0.0672,-0.0655,-0.0499,-0.0378,-0.0104,0.0083,0.0285,0.0282,0.0377,0.0358,0.0294,0.0323,0.0313,0.0303,0.037,0.0371,0.0371,0.0372,0,-0.0784,-0.0793,-0.0816,-0.0868,-0.0891,-0.091,-0.0912,-0.0914,-0.0848,-0.0789,-0.068,-0.057,-0.0302,-0.0071,0.0186,0.0297,0.034,0.0395,0.0368,0.0312,0.0276,0.0301,0.0292,0.0377,0.0376,0.0376,0.0376,0.0375,-0.0813,-0.0846,-0.0881,-0.0926,-0.0958,-0.0984,-0.0993,-0.0968,-0.0928,-0.0816,-0.0706,-0.0508,-0.0298,0.0081,0.0256,0.0419,0.0411,0.0453,0.0448,0.0444,0.0415,0.0383,0.0497,0.0497,0.0498,0.0498,0.0498,0,-0.0846,-0.0883,-0.0935,-0.0986,-0.1029,-0.1027,-0.1034,-0.1016,-0.0956,-0.0811,-0.0669,-0.0414,-0.014,0.008,0.0342,0.049,0.0473,0.0513,0.0459,0.0454,0.0449,0.0417,0.0502,0.0503,0.0503,0.0503,0,0,-0.0865,-0.0921,-0.095,-0.1029,-0.1066,-0.1096,-0.1094,-0.1043,-0.0939,-0.0786,-0.0615,-0.0391,-0.0124,0.0062,0.0248,0.0385,0.0379,0.0397,0.0378,0.0287,0.028,0.04,0.0343,0,0,0,0,0]}],[{"header":{"parameterUnit":"m.s-1","parameterCategory":2,"la1":30.2991,"la2":30.254,"lo1":-89.0895,"lo2":-89.0444,"dy":0.0017,"dx":0.0017,"nx":28,"ny":28,"refTime":"2025-02-06T09:00:00:Z","depth":"4","parameterNumber":2,"parameterNumberName":"U-component_of_CURRENTS"},"data":[0,0,0,0,0,0,0,0,0,0,0,0,0,0,0,0,0,0,0,0,0,0,0,0,0,0,0,0,0,0,0,0,0,0,0,0,0,0,0,0,0,0,0,0,0,0,0,0,0,0,0,0,0,0,0,0,0,0,-0.1332,-0.1333,0,-0.1371,-0.1371,-0.1372,-0.1382,-0.1382,-0.1382,-0.1381,-0.142,-0.1421,-0.1422,0,0,0,0,0,0,0,0,0,0,0,0,0,-0.1269,-0.1271,-0.1332,-0.1333,-0.1333,-0.1371,-0.1371,-0.1372,-0.1382,-0.1382,-0.1382,-0.1381,-0.1419,-0.1421,-0.1422,0,0,0,0,0,0,0,0,0,0,0,0,0,-0.1301,-0.1271,-0.1332,-0.1343,-0.1344,-0.1371,-0.1371,-0.1372,-0.1382,-0.1382,-0.1382,-0.1381,-0.1419,-0.142,-0.1422,-0.1439,0,0,-0.1428,-0.1428,0,0,0,0,0,0,0,0,-0.1299,-0.1303,-0.1341,-0.1342,-0.1344,-0.1372,-0.1363,-0.1395,-0.1382,-0.1367,-0.1381,-0.1381,-0.1404,-0.1407,-0.1414,-0.1441,-0.1443,-0.1428,-0.1429,-0.143,-0.143,0,0,0,0,0,0,0,-0.1297,-0.1302,-0.1347,-0.1341,-0.1343,-0.1347,-0.1351,-0.1369,-0.1387,-0.1369,-0.137,-0.1375,-0.1405,-0.1413,-0.1415,-0.1443,-0.1428,-0.1429,-0.143,-0.1431,-0.1536,-0.1538,0,0,0,0,0,0,-0.1293,-0.13,-0.1346,-0.1348,-0.1321,-0.1348,-0.1353,-0.1363,-0.1386,-0.139,-0.1375,-0.1375,-0.141,-0.1413,-0.1417,-0.148,-0.143,-0.1431,-0.1432,-0.1534,-0.1536,-0.1538,0,0,0,0,0,0,-0.1292,-0.1297,-0.1344,-0.1325,-0.1331,-0.135,-0.1361,-0.1364,-0.1392,-0.1391,-0.1394,-0.1402,-0.141,-0.1414,-0.1458,-0.148,-0.1432,-0.1434,-0.1532,-0.1535,-0.1537,-0.158,0,0,0,0,0,0,-0.129,-0.1297,-0.1316,-0.1325,-0.1332,-0.1375,-0.1361,-0.1365,-0.1394,-0.1396,-0.1416,-0.1418,-0.141,-0.1455,-0.146,-0.1482,-0.1435,-0.153,-0.1534,-0.1537,-0.1577,-0.1584,-0.159,0,0,0,0,0,-0.1288,-0.1311,-0.1316,-0.1323,-0.1353,-0.1377,-0.1382,-0.1393,-0.1396,-0.1416,-0.1434,-0.1418,-0.1478,-0.1459,-0.1463,-0.1486,-0.1529,-0.1533,-0.1536,-0.1574,-0.1583,-0.159,0,0,0,0,0,0,-0.1295,-0.1314,-0.132,-0.1349,-0.1369,-0.1379,-0.1404,-0.141,-0.144,-0.145,-0.1444,-0.1448,-0.1496,-0.1491,-0.1469,-0.1527,-0.1499,-0.1504,-0.1526,-0.1535,-0.1541,-0.1529,-0.1437,0,0,0,0,0,-0.1305,-0.133,-0.1344,-0.1372,-0.1385,-0.14,-0.1416,-0.1426,-0.1446,-0.146,-0.1473,-0.1491,-0.1513,-0.1524,-0.1545,-0.1578,-0.1561,-0.1596,-0.1603,-0.1608,-0.1603,-0.161,-0.1616,-0.1551,-0.1551,-0.1551,0,0,-0.1318,-0.1331,-0.1347,-0.1376,-0.1394,-0.1418,-0.141,-0.1446,-0.1464,-0.146,-0.1503,-0.1523,-0.1531,-0.1569,-0.1588,-0.1567,-0.1619,-0.1613,-0.1618,-0.1609,-0.1614,-0.162,-0.1625,-0.1554,-0.1553,-0.1553,0,0,-0.1347,-0.1368,-0.1397,-0.1414,-0.1447,-0.1453,-0.1468,-0.1495,-0.1508,-0.1549,-0.1553,-0.1584,-0.1619,-0.1622,-0.1628,-0.1686,-0.1662,-0.1703,-0.1718,-0.1725,-0.173,-0.1734,-0.1719,-0.1721,-0.1697,-0.1697,-0.1697,0,-0.1362,-0.1393,-0.141,-0.1437,-0.1455,-0.147,-0.15,-0.1515,-0.1553,-0.157,-0.1569,-0.1632,-0.1636,-0.1672,-0.1688,-0.1698,-0.1696,-0.1683,-0.1732,-0.1735,-0.1739,-0.1722,-0.1724,-0.17,-0.1699,-0.1699,-0.1699,0,-0.1401,-0.1433,-0.1454,-0.1488,-0.1512,-0.1542,-0.1559,-0.1592,-0.161,-0.162,-0.1674,-0.1686,-0.1716,-0.1727,-0.1722,-0.1757,-0.1747,-0.1745,-0.1705,-0.1747,-0.1728,-0.1729,-0.1703,-0.1702,-0.1702,-0.1701,0,0,-0.1406,-0.1469,-0.1477,-0.1496,-0.154,-0.1557,-0.16,-0.1633,-0.166,-0.1694,-0.1725,-0.1759,-0.177,-0.1778,-0.1784,-0.1785,-0.18,-0.1777,-0.1776,-0.175,-0.1809,-0.168,-0.1668,-0.1815,-0.1815,-0.1816,-0.1784,0,-0.1429,-0.148,-0.1511,-0.1558,-0.1578,-0.1612,-0.1645,-0.168,-0.1707,-0.1742,-0.1757,-0.1792,-0.1787,-0.1808,-0.1813,-0.1811,-0.1807,-0.1808,-0.1782,-0.178,-0.1651,-0.1666,-0.1818,-0.1785,-0.1785,-0.1785,-0.1785,0,-0.144,-0.1474,-0.1525,-0.1579,-0.1594,-0.1629,-0.1682,-0.1715,-0.1765,-0.1788,-0.1827,-0.1841,-0.186,-0.1845,-0.1848,-0.1856,-0.1836,-0.1822,-0.182,-0.1681,-0.1653,-0.1736,-0.1787,-0.1787,-0.1787,-0.1786,-0.1786,0,-0.1397,-0.1473,-0.1512,-0.1531,-0.1601,-0.1638,-0.1678,-0.1734,-0.1761,-0.1819,-0.1842,-0.1876,-0.1887,-0.1884,-0.1851,-0.1862,-0.1835,-0.1842,-0.1704,-0.1694,-0.1801,-0.1797,-0.1835,-0.1835,-0.1835,-0.1835,-0.1835,0,-0.1374,-0.1406,-0.15,-0.1516,-0.1566,-0.1625,-0.1678,-0.1723,-0.1785,-0.1805,-0.1862,-0.1867,-0.19,-0.1887,-0.1862,-0.177,-0.1842,-0.1696,-0.1676,-0.182,-0.1819,-0.1801,-0.1797,-0.1834,-0.1834,-0.1834,-0.1834,0,-0.1304,-0.1369,-0.1416,-0.1511,-0.1543,-0.1576,-0.1667,-0.1696,-0.1769,-0.1798,-0.1816,-0.1865,-0.1839,-0.1842,-0.1819,-0.1758,-0.1699,-0.1649,-0.1787,-0.1777,-0.1554,-0.1553,-0.1495,-0.149,-0.1486,-0.1482,-0.1479,0,-0.1266,-0.1286,-0.1397,-0.1427,-0.1474,-0.154,-0.1577,-0.167,-0.1693,-0.1769,-0.1762,-0.1779,-0.1789,-0.1644,-0.1672,-0.1603,-0.1584,-0.1548,-0.1562,-0.1532,-0.1519,-0.1525,-0.153,-0.1473,-0.1472,-0.1471,-0.1469,0,-0.1191,-0.1246,-0.1288,-0.1353,-0.1405,-0.1451,-0.1513,-0.1516,-0.1605,-0.1693,-0.1647,-0.1618,-0.1582,-0.1549,-0.1499,-0.1458,-0.1571,-0.1505,-0.1514,-0.1527,-0.1505,-0.1497,-0.1507,-0.1455,-0.1457,-0.1459,-0.1459,0,-0.1136,-0.115,-0.1215,-0.1256,-0.132,-0.133,-0.1381,-0.1395,-0.1426,-0.1514,-0.1492,-0.1507,-0.156,-0.1471,-0.1428,-0.137,-0.1354,-0.1314,-0.1332,-0.1349,-0.1314,-0.1265,-0.1111,0,0,0,0,0,-0.1073,-0.1076,-0.111,-0.1149,-0.1207,-0.1236,-0.1318,-0.137,-0.1459,-0.1382,-0.1431,-0.1386,-0.1319,-0.1335,-0.1241,-0.1365,-0.1364,-0.1252,-0.133,-0.1376,-0.1392,-0.1364,0,0,0,0,0,0,-0.103,-0.1061,-0.1071,-0.1043,-0.1045,-0.109,-0.1131,-0.1197,-0.1163,-0.1256,-0.1222,-0.1295,-0.1248,-0.1338,-0.1207,-0.121,-0.1229,-0.1274,-0.1269,-0.1366,-0.1381,-0.1395,-0.1372,0,0,0,0,0]},{"header":{"parameterUnit":"m.s-1","parameterCategory":2,"la1":30.2991,"la2":30.254,"lo1":-89.0895,"lo2":-89.0444,"dy":0.0017,"dx":0.0017,"nx":28,"ny":28,"refTime":"2025-02-06T09:00:00:Z","depth":"4","parameterNumber":3,"parameterNumberName":"V-component_of_CURRENTS"},"data":[0,0,0,0,0,0,0,0,0,0,0,0,0,0,0,0,0,0,0,0,0,0,0,0,0,0,0,0,0,0,0,0,0,0,0,0,0,0,0,0,0,0,0,0,0,0,0,0,0,0,0,0,0,0,0,0,0,0,-0.0341,-0.0341,0,-0.0347,-0.0347,-0.0347,-0.0348,-0.0348,-0.0348,-0.0348,-0.0342,-0.0342,-0.0342,0,0,0,0,0,0,0,0,0,0,0,0,0,-0.0335,-0.0336,-0.0341,-0.0341,-0.0341,-0.0347,-0.0347,-0.0347,-0.0348,-0.0348,-0.0348,-0.0347,-0.0342,-0.0342,-0.0342,0,0,0,0,0,0,0,0,0,0,0,0,0,-0.034,-0.0336,-0.0341,-0.0342,-0.0342,-0.0347,-0.0347,-0.0347,-0.0348,-0.0348,-0.0348,-0.0347,-0.0342,-0.0342,-0.0342,-0.0345,0,0,-0.0341,-0.0341,0,0,0,0,0,0,0,0,-0.034,-0.034,-0.0342,-0.0342,-0.0342,-0.0346,-0.0343,-0.0345,-0.0348,-0.0347,-0.0348,-0.0347,-0.0341,-0.0341,-0.0344,-0.0345,-0.0344,-0.0341,-0.0341,-0.0341,-0.0341,0,0,0,0,0,0,0,-0.0339,-0.034,-0.0344,-0.0342,-0.0342,-0.0343,-0.0343,-0.0343,-0.0345,-0.0347,-0.0346,-0.0346,-0.0341,-0.0344,-0.0344,-0.0344,-0.0341,-0.0341,-0.0341,-0.0341,-0.035,-0.035,0,0,0,0,0,0,-0.0337,-0.034,-0.0344,-0.0344,-0.0339,-0.0343,-0.0344,-0.0345,-0.0346,-0.0345,-0.0346,-0.0346,-0.0345,-0.0344,-0.0344,-0.0345,-0.0341,-0.0341,-0.0341,-0.035,-0.035,-0.035,0,0,0,0,0,0,-0.0337,-0.0337,-0.0344,-0.0341,-0.0342,-0.0343,-0.0345,-0.0345,-0.0351,-0.0345,-0.0345,-0.0351,-0.0344,-0.0344,-0.0343,-0.0345,-0.0341,-0.0341,-0.0349,-0.035,-0.035,-0.0348,0,0,0,0,0,0,-0.0337,-0.0337,-0.0343,-0.0341,-0.0342,-0.0353,-0.0345,-0.0346,-0.035,-0.035,-0.035,-0.0349,-0.0344,-0.0343,-0.0343,-0.0344,-0.0341,-0.0349,-0.0349,-0.035,-0.0348,-0.0349,-0.0349,0,0,0,0,0,-0.0337,-0.0346,-0.0343,-0.0344,-0.0348,-0.0353,-0.0354,-0.0355,-0.0351,-0.0358,-0.0351,-0.0349,-0.0346,-0.0343,-0.0343,-0.0344,-0.0349,-0.0349,-0.035,-0.0348,-0.0349,-0.0349,0,0,0,0,0,0,-0.0349,-0.0346,-0.0344,-0.0352,-0.0354,-0.0353,-0.036,-0.0358,-0.0359,-0.0358,-0.035,-0.0349,-0.0348,-0.0349,-0.0346,-0.0349,-0.0348,-0.0349,-0.0347,-0.0347,-0.0348,-0.034,-0.0341,0,0,0,0,0,-0.0352,-0.036,-0.0355,-0.0365,-0.0364,-0.0362,-0.0365,-0.0365,-0.0363,-0.0364,-0.0362,-0.0359,-0.0351,-0.0351,-0.0349,-0.0351,-0.0321,-0.0354,-0.0355,-0.0355,-0.0349,-0.0289,-0.0282,-0.0352,-0.0352,-0.0352,0,0,-0.0362,-0.0361,-0.0366,-0.0368,-0.0369,-0.0375,-0.0364,-0.0372,-0.0377,-0.0363,-0.0372,-0.0361,-0.0352,-0.0351,-0.0352,-0.0352,-0.0322,-0.0356,-0.0356,-0.035,-0.0288,-0.0281,-0.0275,-0.0352,-0.0352,-0.0352,0,0,-0.0381,-0.038,-0.039,-0.0391,-0.0392,-0.039,-0.0392,-0.0392,-0.0392,-0.0399,-0.0382,-0.0365,-0.0376,-0.0354,-0.0347,-0.035,-0.0325,-0.0361,-0.0358,-0.03,-0.0292,-0.0286,-0.0247,-0.0237,-0.0363,-0.0363,-0.0363,0,-0.0392,-0.0401,-0.0395,-0.0402,-0.0405,-0.0397,-0.0406,-0.0407,-0.0408,-0.0399,-0.0407,-0.0379,-0.0373,-0.0342,-0.0346,-0.0349,-0.0319,-0.0355,-0.0297,-0.029,-0.0284,-0.0245,-0.0234,-0.0363,-0.0363,-0.0363,-0.0363,0,-0.0414,-0.0423,-0.0429,-0.0434,-0.0436,-0.0446,-0.0439,-0.044,-0.0439,-0.043,-0.0407,-0.0388,-0.0366,-0.0365,-0.0359,-0.0312,-0.0308,-0.0301,-0.0291,-0.0276,-0.0237,-0.0225,-0.0363,-0.0363,-0.0363,-0.0363,0,0,-0.0436,-0.0443,-0.0446,-0.0453,-0.0453,-0.046,-0.046,-0.0451,-0.0443,-0.0435,-0.0414,-0.0391,-0.0366,-0.0356,-0.0335,-0.0289,-0.0221,-0.0281,-0.0278,-0.0233,-0.0101,-0.0123,-0.0112,-0.02,-0.0198,-0.0196,-0.0095,0,-0.0456,-0.0479,-0.0472,-0.0495,-0.0504,-0.049,-0.0492,-0.048,-0.0466,-0.0445,-0.0399,-0.0379,-0.0367,-0.0353,-0.0301,-0.0245,-0.019,-0.025,-0.0129,-0.0126,-0.0139,-0.0099,-0.019,-0.0086,-0.0083,-0.0081,-0.008,0,-0.0477,-0.0491,-0.0516,-0.0522,-0.0524,-0.0535,-0.0524,-0.0523,-0.0479,-0.0464,-0.0415,-0.0381,-0.0315,-0.0308,-0.0185,-0.0225,-0.016,-0.0113,-0.0107,-0.0118,-0.0126,-0.0102,-0.0058,-0.006,-0.0062,-0.0063,-0.0064,0,-0.0501,-0.0519,-0.0542,-0.0547,-0.0553,-0.0557,-0.0558,-0.053,-0.0525,-0.0469,-0.0453,-0.0365,-0.0329,-0.023,-0.0146,-0.0156,-0.0009,-0.0008,0.0041,0.0039,0.0028,0.002,0.0104,0.0104,0.0104,0.0103,0.0103,0,-0.0522,-0.0542,-0.056,-0.0575,-0.0601,-0.0589,-0.06,-0.0582,-0.0549,-0.0534,-0.0465,-0.0428,-0.0306,-0.0216,-0.013,-0.0017,0.001,0.0056,0.0073,0.0022,0.0013,0.0036,0.0027,0.0107,0.0106,0.0106,0.0105,0,-0.0543,-0.0555,-0.0587,-0.0606,-0.0616,-0.0636,-0.0646,-0.0646,-0.061,-0.0584,-0.0566,-0.0465,-0.0347,-0.0228,-0.0067,-0.0008,0.0108,0.0147,0.0075,0.0084,0.0114,0.0104,0.022,0.022,0.022,0.022,0.0221,0,-0.0552,-0.0574,-0.062,-0.0648,-0.0663,-0.069,-0.0707,-0.0684,-0.0677,-0.0607,-0.0591,-0.0475,-0.0397,-0.0182,-0.0063,0.0114,0.0134,0.0191,0.0166,0.0125,0.0131,0.012,0.0109,0.0221,0.0221,0.0221,0.0221,0,-0.0572,-0.0595,-0.0624,-0.0687,-0.0722,-0.0751,-0.0767,-0.0764,-0.0723,-0.0695,-0.0591,-0.0472,-0.0338,-0.0178,-0.0043,0.008,0.015,0.0193,0.0194,0.0172,0.0128,0.0131,0.012,0.0222,0.0222,0.0222,0.0222,0,-0.0587,-0.0618,-0.0665,-0.0714,-0.0765,-0.0791,-0.0797,-0.0769,-0.0748,-0.0661,-0.0627,-0.0473,-0.0377,-0.0195,-0.0073,0.0045,0.0074,0.0105,0.0111,0.0111,0.0039,-0.0035,0.004,0,0,0,0,0,-0.0595,-0.0632,-0.0686,-0.0739,-0.079,-0.0814,-0.0826,-0.0817,-0.0778,-0.0706,-0.066,-0.0528,-0.0324,-0.0233,-0.0114,-0.0086,0.0076,0.0053,0.0109,0.0226,0.0226,0.0156,0,0,0,0,0,0,-0.0603,-0.0657,-0.0684,-0.0746,-0.0786,-0.0832,-0.0839,-0.0814,-0.076,-0.0704,-0.0589,-0.0515,-0.0316,-0.0391,-0.0117,-0.0081,-0.0033,0.0153,0.0155,0.0227,0.0226,0.0225,0.0154,0,0,0,0,0]}]]